TimeEST,TemperatureF,Dew PointF,Humidity,Sea Level PressureIn,VisibilityMPH,Wind Direction,Wind SpeedMPH,Gust SpeedMPH,PrecipitationIn,Events,Conditions,WindDirDegrees,DateUTC
12:15 AM,37.4,19.4,48,30.01,10.0,South,5.8,-,N/A,,Overcast,190,2013-02-03 05:15:00
12:36 AM,37.4,19.4,48,30.00,10.0,South,4.6,-,N/A,,Overcast,180,2013-02-03 05:36:00
12:56 AM,39.2,21.2,49,29.99,10.0,South,3.5,-,N/A,,Overcast,190,2013-02-03 05:56:00
1:18 AM,39.2,21.2,49,29.99,10.0,Calm,Calm,-,N/A,,Overcast,0,2013-02-03 06:18:00
1:36 AM,41.0,21.2,45,29.99,10.0,West,10.4,17.3,N/A,,Overcast,260,2013-02-03 06:36:00
1:55 AM,41.0,21.2,45,29.97,10.0,WSW,5.8,-,N/A,,Overcast,250,2013-02-03 06:55:00
2:16 AM,41.0,21.2,45,29.96,10.0,West,5.8,-,N/A,,Overcast,280,2013-02-03 07:16:00
2:36 AM,39.2,24.8,56,29.96,10.0,West,6.9,-,N/A,,Overcast,270,2013-02-03 07:36:00
2:57 AM,39.2,26.6,61,29.95,10.0,West,5.8,-,N/A,,Overcast,280,2013-02-03 07:57:00
3:16 AM,39.2,26.6,61,29.94,10.0,West,6.9,16.1,N/A,,Overcast,270,2013-02-03 08:16:00
3:35 AM,39.2,24.8,56,29.92,10.0,Calm,Calm,-,N/A,,Overcast,0,2013-02-03 08:35:00
3:55 AM,37.4,26.6,65,29.91,10.0,Calm,Calm,-,N/A,,Mostly Cloudy,0,2013-02-03 08:55:00
4:16 AM,37.4,26.6,65,29.90,10.0,Calm,Calm,-,N/A,,Overcast,0,2013-02-03 09:16:00
4:36 AM,35.6,26.6,70,29.90,10.0,Calm,Calm,-,N/A,,Scattered Clouds,0,2013-02-03 09:36:00
4:56 AM,35.6,26.6,70,29.90,10.0,West,5.8,-,N/A,,Scattered Clouds,260,2013-02-03 09:56:00
5:16 AM,37.4,24.8,60,29.90,10.0,WNW,3.5,-,N/A,,Overcast,290,2013-02-03 10:16:00
5:36 AM,37.4,26.6,65,29.91,10.0,NW,5.8,-,N/A,,Overcast,320,2013-02-03 10:36:00
5:56 AM,37.4,26.6,65,29.91,10.0,NNW,6.9,-,N/A,,Mostly Cloudy,330,2013-02-03 10:56:00
6:15 AM,35.6,26.6,70,29.91,10.0,NNW,8.1,-,N/A,,Scattered Clouds,340,2013-02-03 11:15:00
6:36 AM,33.8,26.6,75,29.92,10.0,North,8.1,-,N/A,,Clear,350,2013-02-03 11:36:00
6:55 AM,33.8,24.8,70,29.92,10.0,NNE,6.9,-,N/A,,Clear,20,2013-02-03 11:55:00
7:15 AM,33.8,24.8,70,29.92,10.0,North,5.8,-,N/A,,Scattered Clouds,10,2013-02-03 12:15:00
7:36 AM,33.8,24.8,70,29.93,10.0,North,4.6,-,N/A,,Scattered Clouds,360,2013-02-03 12:36:00
7:56 AM,33.8,24.8,70,29.93,10.0,Calm,Calm,-,N/A,,Scattered Clouds,0,2013-02-03 12:56:00
8:16 AM,33.8,24.8,70,29.93,10.0,NNE,3.5,-,N/A,,Scattered Clouds,20,2013-02-03 13:16:00
8:36 AM,33.8,24.8,70,29.93,10.0,North,4.6,-,N/A,,Scattered Clouds,10,2013-02-03 13:36:00
8:58 AM,33.8,24.8,70,29.93,10.0,North,8.1,-,N/A,,Mostly Cloudy,360,2013-02-03 13:58:00
9:15 AM,33.8,24.8,70,29.92,10.0,North,4.6,-,N/A,,Mostly Cloudy,10,2013-02-03 14:15:00
9:36 AM,35.6,26.6,70,29.92,10.0,North,6.9,-,N/A,,Clear,360,2013-02-03 14:36:00
9:56 AM,35.6,26.6,70,29.92,10.0,NNW,6.9,-,N/A,,Scattered Clouds,340,2013-02-03 14:56:00
10:16 AM,35.6,26.6,70,29.92,10.0,North,6.9,-,N/A,,Scattered Clouds,350,2013-02-03 15:16:00
10:35 AM,35.6,24.8,65,29.92,10.0,North,6.9,-,N/A,,Scattered Clouds,350,2013-02-03 15:35:00
10:55 AM,35.6,26.6,70,29.92,10.0,NNW,6.9,-,N/A,,Scattered Clouds,330,2013-02-03 15:55:00
11:17 AM,37.4,24.8,60,29.91,7.0,NNW,6.9,-,N/A,Snow,Light Snow,330,2013-02-03 16:17:00
11:36 AM,37.4,24.8,60,29.90,10.0,NNW,4.6,-,N/A,,Mostly Cloudy,340,2013-02-03 16:36:00
11:56 AM,37.4,24.8,60,29.90,10.0,WNW,4.6,-,N/A,,Scattered Clouds,290,2013-02-03 16:56:00
12:15 PM,39.2,23.0,52,29.89,10.0,NW,6.9,-,N/A,,Mostly Cloudy,320,2013-02-03 17:15:00
12:35 PM,39.2,26.6,61,29.89,10.0,West,9.2,-,N/A,,Overcast,280,2013-02-03 17:35:00
12:56 PM,39.2,26.6,61,29.87,10.0,WNW,8.1,-,N/A,,Overcast,290,2013-02-03 17:56:00
1:16 PM,39.2,21.2,49,29.86,10.0,NW,6.9,-,N/A,,Mostly Cloudy,320,2013-02-03 18:16:00
1:55 PM,39.2,21.2,49,29.85,10.0,NW,6.9,-,N/A,,Mostly Cloudy,310,2013-02-03 18:55:00
2:16 PM,39.2,23.0,52,29.85,10.0,NW,8.1,-,N/A,,Mostly Cloudy,310,2013-02-03 19:16:00
2:36 PM,37.4,24.8,60,29.85,10.0,WNW,8.1,-,N/A,,Overcast,290,2013-02-03 19:36:00
2:55 PM,39.2,23.0,52,29.84,10.0,NW,6.9,-,N/A,,Overcast,310,2013-02-03 19:55:00
3:16 PM,37.4,23.0,56,29.85,10.0,NNW,5.8,-,N/A,,Mostly Cloudy,340,2013-02-03 20:16:00
3:36 PM,39.2,21.2,49,29.85,10.0,NNW,6.9,-,N/A,,Overcast,330,2013-02-03 20:36:00
3:55 PM,37.4,21.2,52,29.85,10.0,NNW,5.8,-,N/A,,Scattered Clouds,330,2013-02-03 20:55:00
4:16 PM,37.4,23.0,56,29.86,10.0,NNW,4.6,-,N/A,,Mostly Cloudy,330,2013-02-03 21:16:00
4:35 PM,37.4,23.0,56,29.86,10.0,NW,4.6,-,N/A,,Overcast,310,2013-02-03 21:35:00
4:55 PM,35.6,23.0,60,29.86,10.0,NNW,3.5,-,N/A,,Scattered Clouds,340,2013-02-03 21:55:00
5:16 PM,35.6,24.8,65,29.86,10.0,Calm,Calm,-,N/A,,Clear,0,2013-02-03 22:16:00
5:56 PM,32.0,24.8,75,29.86,10.0,Calm,Calm,-,N/A,,Clear,0,2013-02-03 22:56:00
6:16 PM,30.2,24.8,80,29.87,10.0,Calm,Calm,-,N/A,,Clear,0,2013-02-03 23:16:00
6:35 PM,30.2,24.8,80,29.87,10.0,Calm,Calm,-,N/A,,Clear,0,2013-02-03 23:35:00
6:57 PM,30.2,24.8,80,29.88,10.0,Calm,Calm,-,N/A,,Clear,0,2013-02-03 23:57:00
7:17 PM,28.4,23.0,80,29.88,10.0,Calm,Calm,-,N/A,,Clear,0,2013-02-04 00:17:00
7:35 PM,28.4,23.0,80,29.88,10.0,Calm,Calm,-,N/A,,Clear,0,2013-02-04 00:35:00
7:56 PM,28.4,23.0,80,29.89,10.0,Calm,Calm,-,N/A,,Clear,0,2013-02-04 00:56:00
8:15 PM,28.4,24.8,86,29.89,10.0,Calm,Calm,-,N/A,,Clear,0,2013-02-04 01:15:00
8:36 PM,28.4,23.0,80,29.89,10.0,Calm,Calm,-,N/A,,Clear,0,2013-02-04 01:36:00
8:55 PM,28.4,24.8,86,29.89,10.0,Calm,Calm,-,N/A,,Scattered Clouds,0,2013-02-04 01:55:00
9:16 PM,28.4,23.0,80,29.89,10.0,Calm,Calm,-,N/A,,Scattered Clouds,0,2013-02-04 02:16:00
9:35 PM,26.6,23.0,86,29.90,10.0,Calm,Calm,-,N/A,,Clear,0,2013-02-04 02:35:00
9:57 PM,28.4,24.8,86,29.90,10.0,SW,3.5,-,N/A,,Mostly Cloudy,220,2013-02-04 02:57:00
10:16 PM,28.4,24.8,86,29.90,10.0,SW,3.5,-,N/A,,Mostly Cloudy,230,2013-02-04 03:16:00
10:35 PM,28.4,24.8,86,29.90,10.0,Calm,Calm,-,N/A,,Mostly Cloudy,0,2013-02-04 03:35:00
10:55 PM,28.4,24.8,86,29.90,10.0,West,3.5,-,N/A,,Scattered Clouds,260,2013-02-04 03:55:00
11:15 PM,26.6,23.0,86,29.91,10.0,West,4.6,-,N/A,,Scattered Clouds,260,2013-02-04 04:15:00
11:36 PM,28.4,24.8,86,29.91,10.0,West,4.6,-,N/A,,Scattered Clouds,270,2013-02-04 04:36:00
11:55 PM,33.8,26.6,75,29.91,10.0,WNW,11.5,-,N/A,,Scattered Clouds,300,2013-02-04 04:55:00